Time,TemperatureF,DewpointF,PressureIn,WindDirection,WindDirectionDegrees,WindSpeedMPH,WindSpeedGustMPH,Humidity,HourlyPrecipIn,Conditions,Clouds,dailyrainin,SoftwareType,DateUTC
2013-06-17 10:44:00,83.0,75.0,29.99,East,93,0.0,0.0,77,0.00,,,0.00,Wunderground v.1.15,2013-06-17 15:44:00,
2013-06-17 10:50:00,83.2,75.2,29.99,WSW,242,0.0,2.0,77,0.00,,,0.00,Wunderground v.1.15,2013-06-17 15:50:00,
2013-06-17 11:00:00,83.9,75.5,29.99,ESE,110,1.0,1.0,76,0.00,,,0.00,Wunderground v.1.15,2013-06-17 16:00:00,
2013-06-17 11:05:00,84.3,75.9,29.99,SSW,203,0.0,1.0,76,0.00,,,0.00,Wunderground v.1.15,2013-06-17 16:05:00,
2013-06-17 11:10:00,84.5,76.1,29.99,East,85,0.0,0.0,76,0.00,,,0.00,Wunderground v.1.15,2013-06-17 16:10:00,
2013-06-17 11:19:00,85.0,75.4,29.99,West,277,0.0,1.0,73,0.00,,,0.00,Wunderground v.1.15,2013-06-17 16:19:00,
2013-06-17 11:25:00,85.2,75.6,29.99,WSW,253,0.0,1.0,73,0.00,,,0.00,Wunderground v.1.15,2013-06-17 16:25:00,
2013-06-17 11:35:00,85.4,76.2,29.99,WSW,240,0.0,0.0,74,0.00,,,0.00,Wunderground v.1.15,2013-06-17 16:35:00,
2013-06-17 11:40:00,85.5,75.9,29.98,WNW,287,1.0,1.0,73,0.00,,,0.00,Wunderground v.1.15,2013-06-17 16:40:00,
2013-06-17 11:45:00,86.1,76.0,29.98,West,267,1.0,1.0,72,0.00,,,0.00,Wunderground v.1.15,2013-06-17 16:45:00,
2013-06-17 11:54:00,87.8,75.0,29.98,NE,36,1.0,2.0,66,0.00,,,0.00,Wunderground v.1.15,2013-06-17 16:54:00,
2013-06-17 12:00:00,88.3,76.4,29.98,East,101,2.0,2.0,68,0.00,,,0.00,Wunderground v.1.15,2013-06-17 17:00:00,
2013-06-17 12:09:00,89.4,76.1,29.98,East,80,2.0,2.0,65,0.00,,,0.00,Wunderground v.1.15,2013-06-17 17:09:00,
2013-06-17 12:15:00,89.2,75.4,29.97,West,262,2.0,2.0,64,0.00,,,0.00,Wunderground v.1.15,2013-06-17 17:15:00,
2013-06-17 12:25:00,90.1,76.3,29.97,ESE,115,1.0,3.0,64,0.00,,,0.00,Wunderground v.1.15,2013-06-17 17:25:00,
2013-06-17 12:30:00,89.7,76.4,29.97,West,276,2.0,2.0,65,0.00,,,0.00,Wunderground v.1.15,2013-06-17 17:30:00,
2013-06-17 12:40:00,90.2,75.4,29.96,SW,217,1.0,1.0,62,0.00,,,0.00,Wunderground v.1.15,2013-06-17 17:40:00,
2013-06-17 12:50:00,91.1,74.8,29.96,ESE,112,1.0,3.0,59,0.00,,,0.00,Wunderground v.1.15,2013-06-17 17:50:00,
2013-06-17 12:59:00,91.0,75.2,29.95,NW,304,2.0,2.0,60,0.00,,,0.00,Wunderground v.1.15,2013-06-17 17:59:00,
2013-06-17 13:05:00,92.0,76.1,29.95,SSE,148,1.0,2.0,60,0.00,,,0.00,Wunderground v.1.15,2013-06-17 18:05:00,
2013-06-17 13:15:00,92.4,75.5,29.95,WNW,290,2.0,2.0,58,0.00,,,0.00,Wunderground v.1.15,2013-06-17 18:15:00,
2013-06-17 13:20:00,92.4,76.0,29.95,West,275,2.0,2.0,59,0.00,,,0.00,Wunderground v.1.15,2013-06-17 18:20:00,
2013-06-17 13:30:00,92.7,75.8,29.94,WNW,289,1.0,2.0,58,0.00,,,0.00,Wunderground v.1.15,2013-06-17 18:30:00,
2013-06-17 13:40:00,92.8,74.3,29.94,SW,214,1.0,1.0,55,0.00,,,0.00,Wunderground v.1.15,2013-06-17 18:40:00,
2013-06-17 13:49:00,93.1,76.6,29.94,WNW,300,2.0,2.0,59,0.00,,,0.00,Wunderground v.1.15,2013-06-17 18:49:00,
2013-06-17 13:55:00,93.8,76.3,29.94,NNW,328,1.0,3.0,57,0.00,,,0.00,Wunderground v.1.15,2013-06-17 18:55:00,
2013-06-17 14:05:00,93.6,77.1,29.93,South,174,2.0,4.0,59,0.00,,,0.00,Wunderground v.1.15,2013-06-17 19:05:00,
2013-06-17 14:10:00,93.8,75.7,29.93,WSW,253,1.0,1.0,56,0.00,,,0.00,Wunderground v.1.15,2013-06-17 19:10:00,
2013-06-17 14:20:00,94.3,76.2,29.93,NE,50,1.0,1.0,56,0.00,,,0.00,Wunderground v.1.15,2013-06-17 19:20:00,
2013-06-17 14:30:00,94.6,75.4,29.93,East,99,2.0,2.0,54,0.00,,,0.00,Wunderground v.1.15,2013-06-17 19:30:00,
2013-06-17 14:39:00,94.3,74.5,29.92,West,277,2.0,2.0,53,0.00,,,0.00,Wunderground v.1.15,2013-06-17 19:39:00,
2013-06-17 14:45:00,94.3,75.1,29.92,WSW,239,2.0,2.0,54,0.00,,,0.00,Wunderground v.1.15,2013-06-17 19:45:00,
2013-06-17 14:55:00,94.6,75.4,29.91,SSW,213,2.0,2.0,54,0.00,,,0.00,Wunderground v.1.15,2013-06-17 19:55:00,
2013-06-17 15:00:00,94.9,75.7,29.91,SW,224,2.0,2.0,54,0.00,,,0.00,Wunderground v.1.15,2013-06-17 20:00:00,
2013-06-17 15:10:00,95.3,75.5,29.91,SW,233,1.0,2.0,53,0.00,,,0.00,Wunderground v.1.15,2013-06-17 20:10:00,
2013-06-17 15:20:00,95.9,75.4,29.91,WSW,256,1.0,2.0,52,0.00,,,0.00,Wunderground v.1.15,2013-06-17 20:20:00,
2013-06-17 15:29:00,95.8,75.3,29.90,WNW,287,2.0,2.0,52,0.00,,,0.00,Wunderground v.1.15,2013-06-17 20:29:00,
2013-06-17 15:35:00,95.4,75.6,29.89,ESE,102,2.0,2.0,53,0.00,,,0.00,Wunderground v.1.15,2013-06-17 20:35:00,
2013-06-17 15:45:00,95.6,75.2,29.89,ESE,113,2.0,2.0,52,0.00,,,0.00,Wunderground v.1.15,2013-06-17 20:45:00,
2013-06-17 15:50:00,95.9,74.9,29.89,West,267,1.0,1.0,51,0.00,,,0.00,Wunderground v.1.15,2013-06-17 20:50:00,
2013-06-17 16:00:00,96.5,76.6,29.88,West,278,1.0,1.0,53,0.00,,,0.00,Wunderground v.1.15,2013-06-17 21:00:00,
2013-06-17 16:10:00,95.8,74.8,29.88,NNE,24,2.0,2.0,51,0.00,,,0.00,Wunderground v.1.15,2013-06-17 21:10:00,
2013-06-17 16:20:00,95.4,75.0,29.88,SSW,200,2.0,2.0,52,0.00,,,0.00,Wunderground v.1.15,2013-06-17 21:20:00,
2013-06-17 16:30:00,96.6,74.9,29.88,SSE,162,1.0,1.0,50,0.00,,,0.00,Wunderground v.1.15,2013-06-17 21:30:00,
2013-06-17 16:39:00,97.3,74.9,29.87,WSW,252,1.0,1.0,49,0.00,,,0.00,Wunderground v.1.15,2013-06-17 21:39:00,
2013-06-17 16:45:00,96.8,74.5,29.87,SSE,160,1.0,1.0,49,0.00,,,0.00,Wunderground v.1.15,2013-06-17 21:45:00,
2013-06-17 16:55:00,97.0,74.7,29.87,WNW,286,1.0,1.0,49,0.00,,,0.00,Wunderground v.1.15,2013-06-17 21:55:00,
2013-06-17 17:04:00,97.4,74.4,29.87,NW,315,1.0,1.0,48,0.00,,,0.00,Wunderground v.1.15,2013-06-17 22:04:00,
2013-06-17 17:10:00,97.4,73.8,29.86,ESE,112,1.0,2.0,47,0.00,,,0.00,Wunderground v.1.15,2013-06-17 22:10:00,
2013-06-17 17:20:00,97.7,75.3,29.86,WNW,288,1.0,1.0,49,0.00,,,0.00,Wunderground v.1.15,2013-06-17 22:20:00,
2013-06-17 17:25:00,97.6,75.2,29.86,ESE,115,1.0,1.0,49,0.00,,,0.00,Wunderground v.1.15,2013-06-17 22:25:00,
2013-06-17 17:35:00,96.6,74.3,29.85,SSW,207,1.0,1.0,49,0.00,,,0.00,Wunderground v.1.15,2013-06-17 22:35:00,
2013-06-17 17:45:00,95.8,74.8,29.85,East,98,1.0,3.0,51,0.00,,,0.00,Wunderground v.1.15,2013-06-17 22:45:00,
2013-06-17 17:54:00,95.5,74.5,29.85,ESE,103,1.0,2.0,51,0.00,,,0.00,Wunderground v.1.15,2013-06-17 22:54:00,
2013-06-17 18:00:00,95.5,75.1,29.85,SSW,200,1.0,1.0,52,0.00,,,0.00,Wunderground v.1.15,2013-06-17 23:00:00,
2013-06-17 18:09:00,95.5,73.9,29.84,SE,138,1.0,1.0,50,0.00,,,0.00,Wunderground v.1.15,2013-06-17 23:09:00,
2013-06-17 18:15:00,95.3,73.7,29.84,ESE,113,1.0,1.0,50,0.00,,,0.00,Wunderground v.1.15,2013-06-17 23:15:00,
2013-06-17 18:25:00,94.8,73.3,29.84,NW,307,1.0,1.0,50,0.00,,,0.00,Wunderground v.1.15,2013-06-17 23:25:00,
2013-06-17 18:35:00,94.9,72.8,29.84,SSE,156,1.0,1.0,49,0.00,,,0.00,Wunderground v.1.15,2013-06-17 23:35:00,
2013-06-17 18:45:00,94.5,72.4,29.84,SSW,211,0.0,2.0,49,0.00,,,0.00,Wunderground v.1.15,2013-06-17 23:45:00,
2013-06-17 18:55:00,93.2,71.8,29.84,ENE,71,1.0,1.0,50,0.00,,,0.00,Wunderground v.1.15,2013-06-17 23:55:00,
2013-06-17 19:05:00,92.5,71.2,29.84,SW,214,0.0,1.0,50,0.00,,,0.00,Wunderground v.1.15,2013-06-18 00:05:00,
2013-06-17 19:15:00,92.7,70.7,29.84,South,183,0.0,1.0,49,0.00,,,0.00,Wunderground v.1.15,2013-06-18 00:15:00,
2013-06-17 19:20:00,93.0,71.0,29.84,SW,235,0.0,1.0,49,0.00,,,0.00,Wunderground v.1.15,2013-06-18 00:20:00,
2013-06-17 19:30:00,93.5,71.5,29.84,East,99,0.0,0.0,49,0.00,,,0.00,Wunderground v.1.15,2013-06-18 00:30:00,
2013-06-17 19:35:00,93.7,71.7,29.84,SE,133,0.0,0.0,49,0.00,,,0.00,Wunderground v.1.15,2013-06-18 00:35:00,
2013-06-17 19:45:00,92.6,71.2,29.84,East,83,0.0,0.0,50,0.00,,,0.00,Wunderground v.1.15,2013-06-18 00:45:00,
2013-06-17 19:55:00,91.3,71.2,29.84,ESE,115,0.0,0.0,52,0.00,,,0.00,Wunderground v.1.15,2013-06-18 00:55:00,
2013-06-17 20:05:00,89.6,71.3,29.84,NE,44,0.0,0.0,55,0.00,,,0.00,Wunderground v.1.15,2013-06-18 01:05:00,
2013-06-17 20:10:00,88.8,71.6,29.84,NE,46,0.0,0.0,57,0.00,,,0.00,Wunderground v.1.15,2013-06-18 01:10:00,
2013-06-17 20:19:00,87.8,71.2,29.84,NE,44,0.0,0.0,58,0.00,,,0.00,Wunderground v.1.15,2013-06-18 01:19:00,
2013-06-17 20:25:00,87.2,70.6,29.84,NE,44,0.0,0.0,58,0.00,,,0.00,Wunderground v.1.15,2013-06-18 01:25:00,
2013-06-17 20:35:00,86.2,71.6,29.84,NE,44,0.0,0.0,62,0.00,,,0.00,Wunderground v.1.15,2013-06-18 01:35:00,
2013-06-17 20:45:00,85.5,71.9,29.84,NE,44,0.0,0.0,64,0.00,,,0.00,Wunderground v.1.15,2013-06-18 01:45:00,
2013-06-17 20:55:00,85.4,72.3,29.85,ESE,108,0.0,0.0,65,0.00,,,0.00,Wunderground v.1.15,2013-06-18 01:55:00,
2013-06-17 21:00:00,85.8,73.1,29.85,ESE,120,0.0,2.0,66,0.00,,,0.00,Wunderground v.1.15,2013-06-18 02:00:00,
2013-06-17 21:09:00,86.5,73.8,29.85,NNW,338,1.0,1.0,66,0.00,,,0.00,Wunderground v.1.15,2013-06-18 02:09:00,
2013-06-17 21:15:00,86.6,74.3,29.86,SE,124,1.0,1.0,67,0.00,,,0.00,Wunderground v.1.15,2013-06-18 02:15:00,
2013-06-17 21:25:00,86.7,75.3,29.86,ESE,114,2.0,3.0,69,0.00,,,0.00,Wunderground v.1.15,2013-06-18 02:25:00,
2013-06-17 21:35:00,86.3,75.8,29.86,ESE,117,2.0,3.0,71,0.00,,,0.00,Wunderground v.1.15,2013-06-18 02:35:00,
2013-06-17 21:44:00,85.8,76.1,29.88,ESE,106,1.0,2.0,73,0.00,,,0.00,Wunderground v.1.15,2013-06-18 02:44:00,
2013-06-17 21:50:00,85.6,75.9,29.88,SE,128,1.0,1.0,73,0.00,,,0.00,Wunderground v.1.15,2013-06-18 02:50:00,
2013-06-17 21:59:00,85.1,75.9,29.89,SE,124,0.0,3.0,74,0.00,,,0.00,Wunderground v.1.15,2013-06-18 02:59:00,
2013-06-17 22:05:00,85.0,76.2,29.88,NNE,18,1.0,3.0,75,0.00,,,0.00,Wunderground v.1.15,2013-06-18 03:05:00,
2013-06-17 22:15:00,84.6,76.2,29.89,ESE,110,1.0,3.0,76,0.00,,,0.00,Wunderground v.1.15,2013-06-18 03:15:00,
2013-06-17 22:25:00,84.2,76.2,29.89,SE,129,0.0,1.0,77,0.00,,,0.00,Wunderground v.1.15,2013-06-18 03:25:00,
2013-06-17 22:35:00,83.9,75.9,29.90,ESE,115,0.0,1.0,77,0.00,,,0.00,Wunderground v.1.15,2013-06-18 03:35:00,
2013-06-17 22:40:00,83.7,76.1,29.90,ESE,105,1.0,1.0,78,0.00,,,0.00,Wunderground v.1.15,2013-06-18 03:40:00,
2013-06-17 22:49:00,83.3,75.7,29.91,ESE,121,0.0,2.0,78,0.00,,,0.00,Wunderground v.1.15,2013-06-18 03:49:00,
2013-06-17 22:55:00,83.0,75.8,29.91,SE,134,0.0,2.0,79,0.00,,,0.00,Wunderground v.1.15,2013-06-18 03:55:00,
2013-06-17 23:05:00,82.7,75.5,29.92,WNW,288,1.0,1.0,79,0.00,,,0.00,Wunderground v.1.15,2013-06-18 04:05:00,
2013-06-17 23:09:00,82.5,75.3,29.92,ESE,122,1.0,1.0,79,0.00,,,0.00,Wunderground v.1.15,2013-06-18 04:09:00,
2013-06-17 23:15:00,82.3,75.1,29.92,SW,226,0.0,1.0,79,0.00,,,0.00,Wunderground v.1.15,2013-06-18 04:15:00,
2013-06-17 23:25:00,81.9,75.1,29.92,WNW,287,0.0,1.0,80,0.00,,,0.00,Wunderground v.1.15,2013-06-18 04:25:00,
2013-06-17 23:30:00,81.7,75.3,29.92,ENE,74,0.0,0.0,81,0.00,,,0.00,Wunderground v.1.15,2013-06-18 04:30:00,
2013-06-17 23:39:00,81.4,74.6,29.92,ESE,122,0.0,0.0,80,0.00,,,0.00,Wunderground v.1.15,2013-06-18 04:39:00,
2013-06-17 23:45:00,81.3,74.5,29.92,South,191,1.0,1.0,80,0.00,,,0.00,Wunderground v.1.15,2013-06-18 04:45:00,
2013-06-17 23:55:00,81.0,74.2,29.92,South,172,1.0,1.0,80,0.00,,,0.00,Wunderground v.1.15,2013-06-18 04:55:00,